Weather History for Fort Dodge, IA

Change the Weather History Date:

Thursday, September 19, 2013

  Actual Average Record
Temperature  
Mean Temperature 73 °F -  
Max Temperature 84 °F 76 °F 97 °F (1948)
Min Temperature 60 °F 51 °F 31 °F (1991)
Cooling Degree Days 8    
Growing Degree Days 23 (Base 50)    
Moisture  
Dew Point 65 °F    
Average Humidity 76    
Maximum Humidity 100    
Minimum Humidity 54    
Precipitation  
Precipitation 0.15 in - - ()
Sea Level Pressure  
Sea Level Pressure 29.79 in    
Wind  
Wind Speed 10 mph (WSW)    
Max Wind Speed 15 mph    
Max Gust Speed 24 mph    
Visibility 10 miles    
Events Thunderstorm    
Averages and records for this station are not official NWS values.
T = Trace of Precipitation, MM = Missing Value Source: NWS Daily Summary

Daily Weather History Graph

Daily Weather History Graph

Search for Another Location

Airport:

Trip Planner

Search our weather history database for the weather conditions in past years. The results will help you decide how hot, cold, wet, or windy it might be!

Date:

Astronomy

Sep. 19, 2013 Rise Set
Actual Time 7:01 AM CDT 7:18 PM CDT
Civil Twilight 6:32 AM CDT 7:47 PM CDT
Nautical Twilight 5:59 AM CDT 8:20 PM CDT
Astronomical Twilight 5:25 AM CDT 8:53 PM CDT
Moon 7:15 PM CDT (9/19) 7:12 AM CDT (9/19)
Length of Visible Light 13h 14m
Length of Day
12h 17m
Full, 100% of the Moon is Illuminated
Sep 19
Full
Sep 26
Last Quarter
Oct 4
New
Oct 11
First Quarter
Oct 18
Full

Hourly Weather History & Observations

Time (CDT) Temp. Heat Index Dew Point Humidity Pressure Visibility Wind Dir Wind Speed Gust Speed Precip Events Conditions
12:15 AM 77.0 °F - 69.8 °F 78% 29.76 in 10.0 mi South 13.8 mph 20.7 mph N/A   Clear
12:35 AM 75.2 °F - 69.8 °F 83% 29.76 in 10.0 mi South 11.5 mph 23.0 mph N/A   Clear
12:55 AM 75.2 °F - 69.8 °F 83% 29.76 in 10.0 mi South 10.4 mph 20.7 mph N/A   Scattered Clouds
1:15 AM 75.2 °F - 69.8 °F 83% 29.76 in 10.0 mi South 12.7 mph 18.4 mph N/A   Scattered Clouds
1:35 AM 75.2 °F - 69.8 °F 83% 29.76 in 10.0 mi South 11.5 mph 18.4 mph N/A   Mostly Cloudy
1:55 AM 75.2 °F - 69.8 °F 83% 29.76 in 10.0 mi South 11.5 mph - N/A   Overcast
2:15 AM 75.2 °F - 69.8 °F 83% 29.76 in 10.0 mi South 11.5 mph 17.3 mph N/A   Overcast
2:35 AM 75.2 °F - 69.8 °F 83% 29.75 in 10.0 mi South 12.7 mph 18.4 mph N/A   Scattered Clouds
2:55 AM 73.4 °F - 69.8 °F 88% 29.76 in 10.0 mi South 10.4 mph 18.4 mph N/A   Clear
3:15 AM 73.4 °F - 69.8 °F 88% 29.75 in 10.0 mi South 12.7 mph - N/A   Clear
3:35 AM 73.4 °F - 69.8 °F 88% 29.75 in 10.0 mi South 11.5 mph 16.1 mph N/A   Clear
3:55 AM 73.4 °F - 69.8 °F 88% 29.75 in 10.0 mi South 11.5 mph - N/A   Clear
4:15 AM 73.4 °F - 69.8 °F 88% 29.74 in 10.0 mi South 12.7 mph 17.3 mph N/A   Clear
4:35 AM 73.4 °F - 69.8 °F 88% 29.73 in 10.0 mi South 10.4 mph - N/A   Clear
4:55 AM 73.4 °F - 68.0 °F 83% 29.72 in 10.0 mi South 12.7 mph 18.4 mph N/A   Clear
5:15 AM 71.6 °F - 68.0 °F 88% 29.72 in 10.0 mi South 11.5 mph - N/A   Clear
5:35 AM 71.6 °F - 68.0 °F 88% 29.71 in 10.0 mi SSW 12.7 mph 17.3 mph N/A   Clear
5:55 AM 73.4 °F - 66.2 °F 78% 29.71 in 10.0 mi SSW 12.7 mph - N/A   Clear
6:15 AM 73.4 °F - 66.2 °F 78% 29.73 in 10.0 mi SSW 11.5 mph - N/A   Clear
6:35 AM 75.2 °F - 66.2 °F 73% 29.73 in 10.0 mi SSW 13.8 mph 20.7 mph N/A   Clear
6:55 AM 75.2 °F - 66.2 °F 73% 29.73 in 10.0 mi SSW 12.7 mph - N/A   Clear
7:15 AM 75.2 °F - 66.2 °F 73% 29.72 in 10.0 mi SW 10.4 mph 16.1 mph N/A   Clear
7:35 AM 75.2 °F - 66.2 °F 73% 29.72 in 10.0 mi SW 12.7 mph 19.6 mph N/A   Clear
7:55 AM 77.0 °F - 64.4 °F 65% 29.72 in 10.0 mi South 12.7 mph 21.9 mph N/A   Clear
8:15 AM 75.2 °F - 66.2 °F 73% 29.72 in 10.0 mi SSW 13.8 mph 19.6 mph N/A   Clear
8:35 AM 75.2 °F - 66.2 °F 73% 29.73 in 10.0 mi SSW 10.4 mph 18.4 mph N/A   Clear
8:55 AM 75.2 °F - 66.2 °F 73% 29.73 in 10.0 mi SW 10.4 mph - N/A   Clear
9:15 AM 77.0 °F - 66.2 °F 69% 29.75 in 10.0 mi SW 13.8 mph 20.7 mph N/A   Clear
9:35 AM 77.0 °F - 66.2 °F 69% 29.76 in 10.0 mi WSW 15.0 mph 21.9 mph N/A   Clear
9:55 AM 77.0 °F - 66.2 °F 69% 29.76 in 10.0 mi WSW 12.7 mph 20.7 mph N/A   Clear
10:15 AM 78.8 °F - 66.2 °F 65% 29.78 in 10.0 mi WSW 11.5 mph 24.2 mph N/A   Clear
10:35 AM 80.6 °F 82.7 °F 66.2 °F 61% 29.79 in 10.0 mi West 10.4 mph 19.6 mph N/A   Clear
10:55 AM 82.4 °F 84.6 °F 66.2 °F 58% 29.79 in 10.0 mi West 10.4 mph 18.4 mph N/A   Clear
11:15 AM 84.2 °F 86.6 °F 66.2 °F 55% 29.78 in 10.0 mi WNW 8.1 mph - N/A   Clear
11:35 AM 82.4 °F 83.9 °F 64.4 °F 54% 29.79 in 10.0 mi West 8.1 mph - N/A   Clear
11:55 AM 80.6 °F 82.3 °F 64.4 °F 58% 29.78 in 10.0 mi West 9.2 mph - N/A   Clear
12:15 PM 80.6 °F 82.3 °F 64.4 °F 58% 29.81 in 10.0 mi West 12.7 mph - N/A   Scattered Clouds
12:35 PM 80.6 °F 82.3 °F 64.4 °F 58% 29.84 in 10.0 mi WSW 13.8 mph 18.4 mph N/A Thunderstorm Mostly Cloudy
12:55 PM 78.8 °F - 64.4 °F 61% 29.84 in 10.0 mi West 10.4 mph - N/A   Overcast
1:15 PM 78.8 °F - 66.2 °F 65% 29.83 in 10.0 mi West 6.9 mph - N/A   Overcast
1:35 PM 80.6 °F 82.7 °F 66.2 °F 61% 29.80 in 10.0 mi North 4.6 mph - N/A   Partly Cloudy
1:55 PM 78.8 °F - 64.4 °F 61% 29.81 in 10.0 mi West 4.6 mph - N/A   Mostly Cloudy
2:15 PM 78.8 °F - 64.4 °F 61% 29.79 in 10.0 mi Calm Calm - N/A   Overcast
2:35 PM 80.6 °F 82.3 °F 64.4 °F 58% 29.76 in 10.0 mi West 4.6 mph - N/A   Scattered Clouds
2:55 PM 80.6 °F 82.3 °F 64.4 °F 58% 29.77 in 10.0 mi WNW 9.2 mph - N/A   Clear
3:15 PM 80.6 °F 82.3 °F 64.4 °F 58% 29.78 in 10.0 mi West 11.5 mph - N/A   Clear
3:35 PM 78.8 °F - 62.6 °F 57% 29.78 in 10.0 mi West 10.4 mph - N/A   Clear
3:55 PM 77.0 °F - 62.6 °F 61% 29.80 in 10.0 mi West 10.4 mph 16.1 mph N/A   Clear
4:15 PM 75.2 °F - 62.6 °F 65% 29.78 in 10.0 mi NW 8.1 mph - N/A   Clear
4:35 PM 75.2 °F - 62.6 °F 65% 29.78 in 10.0 mi WNW 5.8 mph - N/A   Clear
4:55 PM 73.4 °F - 64.4 °F 73% 29.80 in 10.0 mi West 4.6 mph - N/A Thunderstorm Mostly Cloudy
5:15 PM 71.6 °F - 64.4 °F 78% 29.81 in 10.0 mi West 3.5 mph - 0.03 in   Overcast
5:35 PM 69.8 °F - 66.2 °F 88% 29.82 in 10.0 mi WSW 3.5 mph - 0.06 in   Overcast
5:55 PM 69.8 °F - 66.2 °F 88% 29.81 in 10.0 mi Calm Calm - 0.08 in   Overcast
6:15 PM 68.0 °F - 66.2 °F 94% 29.79 in 10.0 mi NE 4.6 mph - 0.02 in   Overcast
6:35 PM 68.0 °F - 66.2 °F 94% 29.78 in 10.0 mi NNE 4.6 mph - 0.03 in   Overcast
6:55 PM 68.0 °F - 66.2 °F 94% 29.79 in 10.0 mi NNW 5.8 mph - 0.04 in   Overcast
7:15 PM 68.0 °F - 66.2 °F 94% 29.81 in 10.0 mi NNW 4.6 mph - 0.01 in   Mostly Cloudy
7:35 PM 68.0 °F - 66.2 °F 94% 29.81 in 10.0 mi Calm Calm - 0.01 in   Overcast
7:55 PM 68.0 °F - 66.2 °F 94% 29.82 in 10.0 mi Calm Calm - 0.01 in   Mostly Cloudy
8:15 PM 68.0 °F - 66.2 °F 94% 29.83 in 7.0 mi Calm Calm - 0.02 in   Overcast
8:35 PM 68.0 °F - 66.2 °F 94% 29.84 in 10.0 mi SW 3.5 mph - 0.02 in   Overcast
8:55 PM 66.2 °F - 66.2 °F 100% 29.86 in 10.0 mi West 4.6 mph - 0.02 in   Overcast
9:15 PM 66.2 °F - 62.6 °F 88% 29.87 in 10.0 mi NW 5.8 mph - N/A   Mostly Cloudy
9:35 PM 64.4 °F - 60.8 °F 88% 29.88 in 10.0 mi NW 3.5 mph - N/A   Overcast
9:55 PM 64.4 °F - 57.2 °F 77% 29.89 in 10.0 mi Calm Calm - N/A   Overcast
10:15 PM 64.4 °F - 57.2 °F 77% 29.89 in 10.0 mi Calm Calm - N/A   Overcast
10:35 PM 64.4 °F - 57.2 °F 77% 29.90 in 10.0 mi SW 3.5 mph - N/A   Overcast
10:55 PM 62.6 °F - 59.0 °F 88% 29.90 in 10.0 mi Calm Calm - N/A   Overcast
11:15 PM 62.6 °F - 57.2 °F 82% 29.90 in 10.0 mi West 4.6 mph - N/A   Scattered Clouds
11:35 PM 62.6 °F - 53.6 °F 72% 29.91 in 10.0 mi WNW 8.1 mph - N/A   Clear
11:55 PM 60.8 °F - 53.6 °F 77% 29.91 in 10.0 mi WNW 9.2 mph - N/A   Clear